St. Joseph, KS

2:26 AM CDT on September 16, 2019 (GMT -0500)
Rosecrans Memorial

Weather History for KSTJ - July, 2019

Change the Weather History Date:

Friday, July 12, 2019

  Actual Average Record
Temperature  
Mean Temperature 77 °F 77 °F  
Max Temperature 89 °F 87 °F 103 °F (1954)
Min Temperature 64 °F 67 °F 51 °F (1975)
Degree Days  
Heating Degree Days 0 0  
Month to date heating degree days 0 0  
Since 1 June heating degree days 1 8  
Since 1 July heating degree days 0 0  
Cooling Degree Days 12 12  
Month to date cooling degree days 178 142  
Year to date cooling degree days 572 522  
Since 1 June cooling degree days 471 409  
Growing Degree Days 26 (Base 50)    
Moisture  
Dew Point 66 °F    
Average Humidity 70    
Maximum Humidity 93    
Minimum Humidity 46    
Precipitation  
Precipitation 0.00 in 0.16 in 3.02 in (1963)
Month to date precipitation 0.22 1.79  
Year to date precipitation 21.49 18.92  
Sea Level Pressure  
Sea Level Pressure 29.97 in    
Wind  
Wind Speed 4 mph (South)    
Max Wind Speed 13 mph    
Max Gust Speed 16 mph    
Visibility 10 miles    
Events      
T = Trace of Precipitation, MM = Missing Value Source: NWS Daily Summary

Daily Weather History Graph

Daily Weather History Graph

Search for Another Location

Airport or City:

Astronomy

Jul. 12, 2019 Rise Set
Actual Time 6:01 AM CDT 8:48 PM CDT
Civil Twilight 5:29 AM CDT 9:20 PM CDT
Nautical Twilight 4:49 AM CDT 10:00 PM CDT
Astronomical Twilight 4:04 AM CDT 10:45 PM CDT
Moon 5:08 PM CDT (7/12) 2:45 AM CDT (7/12)
Length of Visible Light 15h 50m
Length of Day
14h 46m
Waxing Gibbous, 83% of the Moon is Illuminated
Jul 12
Waxing Gibbous
Jul 16
Full
Jul 24
Last Quarter
Jul 31
New
Aug 7
First Quarter

Hourly Weather History & Observations

Time (CDT) Temp. Heat Index Dew Point Humidity Pressure Visibility Wind Dir Wind Speed Gust Speed Precip Events Conditions
12:53 AM 69.1 °F - 66.0 °F 90% 29.98 in 10.0 mi Calm Calm - N/A   Clear
1:53 AM 68.0 °F - 64.0 °F 87% 29.99 in 10.0 mi Calm Calm - N/A   Clear
2:53 AM 66.9 °F - 63.0 °F 87% 29.99 in 10.0 mi Calm Calm - N/A   Clear
3:53 AM 66.0 °F - 63.0 °F 90% 29.99 in 10.0 mi Calm Calm - N/A   Clear
4:53 AM 64.9 °F - 62.1 °F 90% 29.99 in 10.0 mi NW 3.5 mph - N/A   Clear
5:53 AM 64.9 °F - 62.1 °F 90% 29.99 in 10.0 mi Calm Calm - N/A   Clear
6:53 AM 66.0 °F - 64.0 °F 93% 29.99 in 7.0 mi Calm Calm - N/A   Clear
7:53 AM 71.1 °F - 66.9 °F 87% 30.00 in 8.0 mi Calm Calm - N/A   Clear
8:53 AM 75.0 °F - 68.0 °F 79% 30.00 in 10.0 mi SSE 3.5 mph - N/A   Clear
9:53 AM 79.0 °F - 66.9 °F 66% 30.00 in 8.0 mi South 4.6 mph - N/A   Clear
10:53 AM 82.0 °F 83.8 °F 64.9 °F 56% 29.99 in 10.0 mi SW 5.8 mph - N/A   Clear
11:53 AM 84.0 °F 85.4 °F 64.0 °F 51% 29.98 in 10.0 mi Calm Calm - N/A   Clear
12:53 PM 84.9 °F 86.6 °F 64.9 °F 51% 29.97 in 10.0 mi Variable 3.5 mph - N/A   Clear
1:53 PM 86.0 °F 87.6 °F 64.9 °F 49% 29.97 in 10.0 mi North - - N/A   Clear
2:53 PM 88.0 °F 90.3 °F 66.0 °F 48% 29.96 in 10.0 mi South 6.9 mph - N/A   Clear
3:53 PM 88.0 °F 89.6 °F 64.9 °F 46% 29.96 in 10.0 mi Variable 3.5 mph - N/A   Clear
4:53 PM 88.0 °F 91.4 °F 68.0 °F 51% 29.93 in 10.0 mi SSE 11.5 mph - N/A   Clear
5:53 PM 87.1 °F 89.9 °F 66.9 °F 51% 29.92 in 10.0 mi SSE 9.2 mph - N/A   Clear
6:53 PM 86.0 °F 88.8 °F 66.9 °F 53% 29.92 in 10.0 mi SSE 9.2 mph - N/A   Clear
7:53 PM 84.0 °F 86.5 °F 66.9 °F 56% 29.92 in 10.0 mi SSE 9.2 mph - N/A   Clear
8:53 PM 80.1 °F 82.3 °F 66.9 °F 64% 29.92 in 10.0 mi SE 8.1 mph - N/A   Clear
9:53 PM 79.0 °F - 66.9 °F 66% 29.95 in 10.0 mi Calm Calm - N/A   Clear
10:53 PM 73.0 °F - 68.0 °F 84% 29.96 in 10.0 mi North 3.5 mph - N/A   Clear
11:53 PM 73.0 °F - 69.1 °F 87% 29.96 in 10.0 mi Calm Calm - N/A   Clear